Weather History for Sauk Centre, MN

Change the Weather History Date:

Friday, November 9, 2012

  Actual Average (KGHW) Record (KGHW)
Temperature  
Mean Temperature 38 °F -  
Max Temperature 42 °F 41 °F 69 °F (1999)
Min Temperature 35 °F 25 °F 7 °F (1950)
Degree Days  
Heating Degree Days 26    
Moisture  
Dew Point 34 °F    
Average Humidity 83    
Maximum Humidity 93    
Minimum Humidity 76    
Precipitation  
Precipitation 0.00 in - - ()
Sea Level Pressure  
Sea Level Pressure 29.99 in    
Wind  
Wind Speed 11 mph (NE)    
Max Wind Speed 18 mph    
Max Gust Speed 28 mph    
Visibility 10 miles    
Events      
Averages and records for this station are not official NWS values.
T = Trace of Precipitation, MM = Missing Value Source: NWS Daily Summary

Daily Weather History Graph

Daily Weather History Graph

Search for Another Location

Airport:

Trip Planner

Search our weather history database for the weather conditions in past years. The results will help you decide how hot, cold, wet, or windy it might be!

Date:

Astronomy

Nov. 09, 2012 Rise Set
Actual Time 7:11 AM CST 4:54 PM CST
Civil Twilight 6:39 AM CST 5:26 PM CST
Nautical Twilight 6:04 AM CST 6:02 PM CST
Astronomical Twilight 5:29 AM CST 6:37 PM CST
Moon 1:57 AM CST (11/9) 2:20 PM CST (11/9)
Length of Visible Light 10h 46m
Length of Day
9h 43m
Waning Crescent, 23% of the Moon is Illuminated
Nov 9
Waning Crescent
Nov 13
New
Nov 20
First Quarter
Nov 28
Full
Dec 6
Last Quarter

Hourly Weather History & Observations

Time (CST) Temp. Windchill Dew Point Humidity Pressure Visibility Wind Dir Wind Speed Gust Speed Precip Events Conditions
12:15 AM 35.6 °F 32.8 °F 32.0 °F 87% 30.04 in 10.0 mi NNE 3.5 mph - N/A   Clear
12:35 AM 35.6 °F 31.7 °F 32.0 °F 87% 30.04 in 10.0 mi NNE 4.6 mph - N/A   Clear
12:55 AM 35.6 °F 30.7 °F 33.8 °F 93% 30.04 in 10.0 mi North 5.8 mph - N/A   Scattered Clouds
1:15 AM 35.6 °F 30.7 °F 32.0 °F 87% 30.04 in 10.0 mi NNE 5.8 mph - N/A   Scattered Clouds
1:35 AM 35.6 °F 29.9 °F 33.8 °F 93% 30.04 in 10.0 mi North 6.9 mph - N/A   Mostly Cloudy
1:55 AM 35.6 °F 29.9 °F 33.8 °F 93% 30.04 in 10.0 mi NNE 6.9 mph - N/A   Overcast
2:15 AM 35.6 °F 29.9 °F 33.8 °F 93% 30.04 in 10.0 mi NNE 6.9 mph - N/A   Overcast
2:35 AM 37.4 °F 30.8 °F 33.8 °F 87% 30.04 in 10.0 mi NNE 9.2 mph - N/A   Overcast
2:55 AM 37.4 °F 31.4 °F 33.8 °F 87% 30.04 in 10.0 mi NNE 8.1 mph - N/A   Overcast
3:15 AM 37.4 °F 30.8 °F 33.8 °F 87% 30.04 in 10.0 mi NNE 9.2 mph - N/A   Overcast
3:35 AM 37.4 °F 32.1 °F 33.8 °F 87% 30.04 in 10.0 mi NNE 6.9 mph - N/A   Overcast
3:55 AM 37.4 °F 30.8 °F 33.8 °F 87% 30.04 in 10.0 mi NNE 9.2 mph - N/A   Overcast
4:15 AM 37.4 °F 30.8 °F 33.8 °F 87% 30.04 in 10.0 mi NNE 9.2 mph - N/A   Overcast
4:35 AM 37.4 °F 30.3 °F 33.8 °F 87% 30.04 in 10.0 mi NNE 10.4 mph - N/A   Overcast
4:55 AM 37.4 °F 30.8 °F 33.8 °F 87% 30.05 in 10.0 mi NNE 9.2 mph - N/A   Overcast
5:15 AM 37.4 °F 30.3 °F 33.8 °F 87% 30.05 in 10.0 mi NE 10.4 mph - N/A   Overcast
5:55 AM 37.4 °F 30.3 °F 33.8 °F 87% 30.05 in 10.0 mi NE 10.4 mph - N/A   Overcast
6:15 AM 37.4 °F 29.3 °F 33.8 °F 87% 30.04 in 10.0 mi NE 12.7 mph 16.1 mph N/A   Overcast
6:35 AM 37.4 °F 29.3 °F 33.8 °F 87% 30.04 in 10.0 mi NE 12.7 mph - N/A   Overcast
6:55 AM 37.4 °F 29.8 °F 33.8 °F 87% 30.04 in 10.0 mi NE 11.5 mph 16.1 mph N/A   Overcast
7:15 AM 37.4 °F 31.4 °F 33.8 °F 87% 30.04 in 10.0 mi NNE 8.1 mph - N/A   Overcast
7:35 AM 37.4 °F 29.8 °F 33.8 °F 87% 30.04 in 10.0 mi NE 11.5 mph - N/A   Overcast
7:55 AM 37.4 °F 28.9 °F 33.8 °F 87% 30.04 in 10.0 mi NE 13.8 mph 17.3 mph N/A   Overcast
8:15 AM 37.4 °F 28.9 °F 33.8 °F 87% 30.05 in 10.0 mi NE 13.8 mph 17.3 mph N/A   Overcast
8:55 AM 37.4 °F 29.3 °F 33.8 °F 87% 30.05 in 10.0 mi ENE 12.7 mph - N/A   Overcast
9:15 AM 37.4 °F 29.3 °F 33.8 °F 87% 30.05 in 10.0 mi ENE 12.7 mph 19.6 mph N/A   Overcast
9:35 AM 39.2 °F 32.0 °F 33.8 °F 81% 30.04 in 10.0 mi ENE 11.5 mph 21.9 mph N/A   Overcast
9:55 AM 39.2 °F 29.8 °F 33.8 °F 81% 30.04 in 10.0 mi ENE 18.4 mph 21.9 mph N/A   Overcast
10:15 AM 41.0 °F 32.8 °F 33.8 °F 76% 30.04 in 10.0 mi ENE 16.1 mph 19.6 mph N/A   Overcast
10:35 AM 41.0 °F 33.5 °F 33.8 °F 76% 30.04 in 10.0 mi ENE 13.8 mph 18.4 mph N/A   Overcast
10:55 AM 41.0 °F 33.9 °F 33.8 °F 76% 30.03 in 10.0 mi ENE 12.7 mph - N/A   Overcast
11:15 AM 41.0 °F 33.5 °F 35.6 °F 81% 30.02 in 10.0 mi ENE 13.8 mph 18.4 mph N/A   Overcast
11:35 AM 42.8 °F 35.8 °F 35.6 °F 76% 30.02 in 10.0 mi ENE 13.8 mph 17.3 mph N/A   Overcast
11:55 AM 41.0 °F 33.1 °F 35.6 °F 81% 30.00 in 10.0 mi ENE 15.0 mph 19.6 mph N/A   Overcast
12:15 PM 42.8 °F 35.1 °F 35.6 °F 76% 30.00 in 10.0 mi ENE 16.1 mph 20.7 mph N/A   Overcast
12:35 PM 42.8 °F 35.8 °F 35.6 °F 76% 29.99 in 10.0 mi ENE 13.8 mph - N/A   Overcast
12:55 PM 42.8 °F 35.1 °F 35.6 °F 76% 29.98 in 10.0 mi ENE 16.1 mph 19.6 mph N/A   Overcast
1:15 PM 42.8 °F 35.8 °F 35.6 °F 76% 29.97 in 10.0 mi ENE 13.8 mph 23.0 mph N/A   Overcast
1:35 PM 42.8 °F 35.1 °F 35.6 °F 76% 29.97 in 10.0 mi ENE 16.1 mph 21.9 mph N/A   Overcast
1:55 PM 42.8 °F 35.4 °F 35.6 °F 76% 29.97 in 10.0 mi ENE 15.0 mph 21.9 mph N/A   Overcast
2:15 PM 42.8 °F 36.2 °F 35.6 °F 76% 29.97 in 10.0 mi ENE 12.7 mph 23.0 mph N/A   Overcast
2:35 PM 42.8 °F 35.1 °F 35.6 °F 76% 29.95 in 10.0 mi NE 16.1 mph - N/A   Overcast
2:55 PM 42.8 °F 36.2 °F 35.6 °F 76% 29.96 in 10.0 mi ENE 12.7 mph - N/A   Overcast
3:15 PM 42.8 °F 35.4 °F 35.6 °F 76% 29.96 in 10.0 mi ENE 15.0 mph 19.6 mph N/A   Overcast
3:35 PM 42.8 °F 36.6 °F 35.6 °F 76% 29.96 in 10.0 mi ENE 11.5 mph 21.9 mph N/A   Overcast
3:55 PM 41.0 °F 32.8 °F 33.8 °F 76% 29.95 in 10.0 mi ENE 16.1 mph 19.6 mph N/A   Overcast
4:15 PM 41.0 °F 33.1 °F 33.8 °F 76% 29.94 in 10.0 mi ENE 15.0 mph - N/A   Overcast
4:35 PM 41.0 °F 33.9 °F 33.8 °F 76% 29.94 in 10.0 mi ENE 12.7 mph 18.4 mph N/A   Overcast
4:55 PM 41.0 °F 33.1 °F 33.8 °F 76% 29.95 in 10.0 mi ENE 15.0 mph 19.6 mph N/A   Overcast
5:15 PM 41.0 °F 32.8 °F 33.8 °F 76% 29.95 in 10.0 mi ENE 16.1 mph 20.7 mph N/A   Overcast
5:35 PM 41.0 °F 32.5 °F 33.8 °F 76% 29.95 in 10.0 mi ENE 17.3 mph 23.0 mph N/A   Overcast
5:55 PM 39.2 °F 31.2 °F 33.8 °F 81% 29.96 in 10.0 mi ENE 13.8 mph 19.6 mph N/A   Overcast
6:15 PM 39.2 °F 30.5 °F 33.8 °F 81% 29.95 in 10.0 mi ENE 16.1 mph 23.0 mph N/A   Overcast
6:35 PM 39.2 °F 29.8 °F 33.8 °F 81% 29.95 in 10.0 mi ENE 18.4 mph 24.2 mph N/A   Overcast
6:55 PM 39.2 °F 30.2 °F 33.8 °F 81% 29.95 in 10.0 mi ENE 17.3 mph 25.3 mph N/A   Overcast
7:15 PM 39.2 °F 31.2 °F 33.8 °F 81% 29.96 in 10.0 mi ENE 13.8 mph 21.9 mph N/A   Overcast
7:35 PM 39.2 °F 30.5 °F 33.8 °F 81% 29.95 in 10.0 mi ENE 16.1 mph 23.0 mph N/A   Overcast
7:55 PM 37.4 °F 28.5 °F 33.8 °F 87% 29.94 in 10.0 mi ENE 15.0 mph 25.3 mph N/A   Overcast
8:15 PM 37.4 °F 28.5 °F 33.8 °F 87% 29.95 in 10.0 mi ENE 15.0 mph 24.2 mph N/A   Overcast
8:35 PM 39.2 °F 30.5 °F 33.8 °F 81% 29.95 in 10.0 mi ENE 16.1 mph 24.2 mph N/A   Overcast
8:55 PM 39.2 °F 30.5 °F 33.8 °F 81% 29.95 in 10.0 mi ENE 16.1 mph 24.2 mph N/A   Overcast
9:15 PM 39.2 °F 30.8 °F 33.8 °F 81% 29.95 in 10.0 mi East 15.0 mph 23.0 mph N/A   Overcast
9:35 PM 39.2 °F 30.2 °F 33.8 °F 81% 29.95 in 10.0 mi East 17.3 mph 23.0 mph N/A   Overcast
9:55 PM 39.2 °F 30.8 °F 33.8 °F 81% 29.94 in 10.0 mi East 15.0 mph 21.9 mph N/A   Overcast
10:15 PM 39.2 °F 30.8 °F 35.6 °F 87% 29.92 in 10.0 mi East 15.0 mph 21.9 mph N/A   Overcast
10:35 PM 39.2 °F 31.2 °F 35.6 °F 87% 29.92 in 10.0 mi East 13.8 mph - N/A   Overcast
10:55 PM 39.2 °F 29.8 °F 35.6 °F 87% 29.91 in 10.0 mi East 18.4 mph 27.6 mph N/A   Overcast
11:15 PM 39.2 °F 30.5 °F 35.6 °F 87% 29.89 in 10.0 mi East 16.1 mph 24.2 mph N/A   Overcast
11:35 PM 39.2 °F 30.5 °F 35.6 °F 87% 29.88 in 10.0 mi East 16.1 mph 25.3 mph N/A   Overcast
11:55 PM 39.2 °F 30.5 °F 35.6 °F 87% 29.88 in 10.0 mi East 16.1 mph 24.2 mph N/A   Overcast